Left ArrowRight Arrow

38.20091, -84.87328

Hourly Observations for February 9, 2023

Temp ( °F °C ) Dew Point ( °F °C ) Humidity (%) Winds ( mph kmh ) Pressure ( in mb ) Visibility ( mi km ) Precip ( " mm )
12:53 am 00:53 Cloudy 57 13.9 52 11.1 83 83 SE 9 15 29.95 1014 10 16 0.00 0.00
1:53 am 01:53 Mostly Cloudy 57 13.9 52 11.1 83 83 SSE 13 20 29.92 1013 10 16 0.00 0.00
2:53 am 02:53 Cloudy 59 15 52 11.1 77 77 S 14 22 29.89 1012 10 16 0.00 0.00
3:53 am 03:53 Cloudy 61 16.1 53 11.7 75 75 S 12 19 29.88 1012 10 16 0.00 0.00
4:53 am 04:53 Cloudy with Light Rain 60 15.6 54 12.2 80 80 S 9 15 29.85 1011 8 13 0.01 0.25
5:53 am 05:53 Cloudy 62 16.7 54 12.2 75 75 SSE 14 22 29.80 1009 10 16 0.01 0.13
6:53 am 06:53 Cloudy 64 17.8 53 11.7 67 67 S 22 35 29.76 1008 10 16 0.00 0.00
7:53 am 07:53 Cloudy 64 17.8 52 11.1 65 65 S 18 30 29.74 1007 10 16 0.00 0.00
8:53 am 08:53 Mostly Cloudy 66 18.9 52 11.1 61 61 S 18 30 29.74 1007 10 16 0.00 0.00
9:53 am 09:53 Cloudy with Light Rain 66 18.9 53 11.7 63 63 S 21 33 29.73 1007 10 16 0.01 0.13
10:53 am 10:53 Cloudy 67 19.4 53 11.7 61 61 SSW 26 43 29.73 1007 10 16 0.01 0.13
11:53 am 11:53 Mostly Cloudy 70 21.1 50 10 49 49 SSW 35 56 29.72 1007 10 16 0.00 0.00
12:53 pm 12:53 Mostly Sunny 71 21.7 46 7.8 41 41 SSW 39 63 29.69 1006 10 16 0.00 0.00
1:53 pm 13:53 Sunny 72 22.2 42 5.6 34 34 SSW 31 50 29.68 1005 10 16 0.00 0.00
2:53 pm 14:53 Sunny 68 20 46 7.8 45 45 WSW 30 48 29.73 1007 10 16 0.00 0.00
3:53 pm 15:53 Sunny 62 16.7 44 6.7 52 52 W 22 35 29.80 1009 10 16 0.00 0.00
4:53 pm 16:53 Partly Cloudy 55 12.8 N/A N/A WSW 14 22 29.88 1012 10 16 0.00 0.00
5:53 pm 17:53 Cloudy 50 10 N/A N/A WSW 16 26 29.94 1014 10 16 0.00 0.00
6:33 pm 18:33 Cloudy 50 10 N/A N/A WSW 21 33 29.99 1016 10 16 0.00 0.00
6:53 pm 18:53 Cloudy 50 10 N/A N/A W 18 30 29.98 1015 10 16 0.00 0.00
7:53 pm 19:53 Cloudy 49 9.4 N/A N/A W 10 17 30.01 1016 10 16 0.00 0.00
8:53 pm 20:53 Cloudy 49 9.4 N/A N/A W 13 20 30.03 1017 10 16 0.00 0.00
9:53 pm 21:53 Cloudy 48 8.9 N/A N/A W 15 24 30.06 1018 10 16 0.00 0.00
10:53 pm 22:53 Cloudy 46 7.8 N/A N/A W 12 19 30.10 1019 10 16 0.00 0.00
11:09 pm 23:09 Cloudy 45 7.2 N/A N/A W 14 22 30.13 1020 10 16 0.00 0.00
11:53 pm 23:53 Cloudy 45 7.2 N/A N/A W 8 13 30.11 1020 10 16 0.00 0.00

Powered by Vaisala Xweather